Content
SEND FEEDBACK

Daily
Averages
Monthly
Summary
United States of America

AMHERST, MASSACHUSETTS


Home > North America > United States > Massachusetts
Elevation: 169 feet     Latitude: 42 23N     Longitude: 072 32W

WEATHER
 
SELECT A DAY
Number of Records: 233,284;   Date Range: 1/1/95 - 10/29/14
 
SHARE

PRINT THIS DATA

[ ← Previous Day ]
WEATHER ALMANAC - AUGUST 8, 2014
[ Next Day → ]
[ °C ]   °F
Weather ElementAverageHighLow
Temperature66.1 °F80.8 °F (2:58 pm)48.7 °F (4:58 am)
Dewpoint54.7 °F57.6 °F (6:58 pm)48 °F (4:58 am)
Humidity70.9 %98 % (3:58 am)42 % (3:39 pm)
Barometer30.04 in30.08 in (11:58 pm)30.00 in (12:58 am)
Wind Speed4 mph12.7 mph (1:58 pm)
Wind Gust19.6 mph (1:58 pm)
Weather ElementAverage
Visibility10 mi
Wind DirectionSE (135.4 °)

Weather ElementTotal
Precipitation---
Heating Degree Days0.3 (Base 65)
Growing Degree Days14.8 (Base 50)
Averaged from 24 records on August 8, 2014
WEATHER CONDITIONS BREAKOUT
WIND DIRECTION BREAKOUT
WEATHER BY HOUR - AUGUST 8, 2014
[ °C ]   °F
Local TimeTemperatureDewpointHumidityBarometerVisibilityWind DirectionWind SpeedGust SpeedPrecipitationEventsConditions
12:58 AM52.0 °F51.1 °F97 %30.00 in10.0 miCalmClear
1:58 AM52.7 °F51.3 °F95 %30.00 in10.0 miSE (140°)1.2 mphClear
2:58 AM50.9 °F49.8 °F96 %30.00 in10.0 miCalmClear
3:58 AM52.0 °F51.4 °F98 %30.01 in10.0 miCalmClear
4:58 AM48.7 °F48.0 °F97 %30.02 in10.0 miCalmClear
5:58 AM50.9 °F50.4 °F98 %30.04 in9.0 miCalmClear
6:58 AM53.1 °F52.5 °F98 %30.05 in10.0 miCalmClear
7:58 AM59.4 °F55.8 °F88 %30.07 in10.0 miSSE (150°)2.3 mphClear
8:58 AM64.9 °F56.3 °F74 %30.07 in10.0 miNorth (10°)3.5 mphClear
9:58 AM69.4 °F57.0 °F65 %30.07 in10.0 miVariable2.3 mphClear
10:58 AM73.4 °F57.2 °F57 %30.06 in10.0 miNNW (340°)2.3 mphClear
11:58 AM77.4 °F56.8 °F49 %30.05 in10.0 miNorth (360°)9.2 mphPartly Cloudy
12:58 PM78.3 °F55.9 °F46 %30.04 in10.0 miNW (320°)9.2 mphPartly Cloudy
1:58 PM78.6 °F55.4 °F45 %30.03 in10.0 miWNW (300°)12.7 mph19.6 mphScattered Clouds
2:58 PM80.2 °F57.0 °F45 %30.02 in10.0 miNW (310°)9.2 mphPartly Cloudy
3:39 PM80.6 °F55.4 °F42 %30.00 in10.0 miVariable3.5 mphScattered Clouds
3:58 PM77.5 °F55.8 °F47 %30.02 in10.0 miNNW (330°)9.2 mphScattered Clouds
4:58 PM80.8 °F56.5 °F43 %30.02 in10.0 miVariable5.8 mphScattered Clouds
5:58 PM79.3 °F55.0 °F43 %30.02 in10.0 miNW (310°)8.1 mphPartly Cloudy
6:58 PM75.7 °F57.6 °F53 %30.03 in10.0 miNW (320°)10.4 mphPartly Cloudy
7:58 PM72.0 °F56.3 °F58 %30.05 in10.0 miNW (310°)3.5 mphClear
8:58 PM61.5 °F57.4 °F86 %30.06 in10.0 miCalmClear
9:58 PM62.1 °F57.6 °F85 %30.07 in10.0 miCalmClear
11:58 PM55.8 °F54.5 °F96 %30.08 in10.0 miNE (50°)4.6 mphClear
Hourly data recorded from KCEF, located miles away from Amherst, Massachusetts







STORIES FROM OUR PARTNERS